This demonstration page uses our WeatherBlox Daily Observations layout. Learn more.

Left ArrowRight Arrow

Hourly Observations for July 24, 2022

Temp ( °F °C ) Dew Point ( °F °C ) Humidity (%) Winds ( mph kmh ) Pressure ( in mb ) Visibility ( mi km ) Precip ( " mm )
12:59 am 00:59 Mostly Clear 84 28.9 77 25 80 80 SSW 10 17 30.09 1019 9 14 0.00 0.00
1:59 am 01:59 Mostly Clear 84 28.9 77 25 80 80 SW 8 13 30.08 1019 9 14 0.00 0.00
2:59 am 02:59 Partly Cloudy 82 27.8 76 24.4 82 82 SW 7 11 30.08 1019 9 14 0.00 0.00
3:59 am 03:59 Partly Cloudy 82 27.8 76 24.4 82 82 SW 6 9 30.07 1018 8 13 0.00 0.00
4:59 am 04:59 Partly Cloudy 82 27.8 76 24.4 82 82 SSW 5 7 30.06 1018 8 13 0.00 0.00
5:59 am 05:59 Partly Cloudy 79 26.1 76 24.4 90 90 SSW 6 9 30.07 1018 8 13 0.00 0.00
6:59 am 06:59 Partly Cloudy 79 26.1 75 23.9 88 88 SSW 7 11 30.08 1019 7 11 0.00 0.00
7:59 am 07:59 Mostly Cloudy 81 27.2 74 23.3 79 79 SSW 9 15 30.10 1019 8 13 0.00 0.00
8:59 am 08:59 Mostly Cloudy 81 27.2 74 23.3 79 79 SSW 9 15 30.11 1020 9 14 0.00 0.00
9:59 am 09:59 Mostly Cloudy 86 30 75 23.9 70 70 SSW 7 11 30.12 1020 10 16 0.00 0.00
10:59 am 10:59 Mostly Cloudy 90 32.2 75 23.9 62 62 SW 9 15 30.11 1020 10 16 0.00 0.00
11:59 am 11:59 Partly Cloudy 91 32.8 75 23.9 59 59 SSW 7 11 30.10 1019 10 16 0.00 0.00
12:59 pm 12:59 Partly Cloudy 93 33.9 74 23.3 54 54 SSW 7 11 30.09 1019 10 16 0.00 0.00
1:59 pm 13:59 Mostly Cloudy 93 33.9 72 22.2 50 50 SW 6 9 30.08 1019 10 16 0.00 0.00
2:59 pm 14:59 Partly Cloudy 93 33.9 70 21.1 47 47 S 13 20 30.07 1018 10 16 0.00 0.00
3:59 pm 15:59 Mostly Cloudy 95 35 68 20 41 41 SSW 9 15 30.04 1017 10 16 0.00 0.00
4:59 pm 16:59 Mostly Cloudy 93 33.9 71 21.7 49 49 S 10 17 30.04 1017 10 16 0.00 0.00
5:59 pm 17:59 Partly Cloudy 91 32.8 72 22.2 54 54 S 13 20 30.04 1017 10 16 0.00 0.00
6:59 pm 18:59 Partly Cloudy 91 32.8 71 21.7 52 52 SSW 12 19 30.05 1018 10 16 0.00 0.00
7:09 pm 19:09 Partly Cloudy with Thunderstorms 92 33.3 71 21.7 51 51 S 12 19 30.04 1017 10 16 0.00 0.00
7:51 pm 19:51 Partly Cloudy 92 33.3 71 21.7 51 51 SSW 10 17 30.06 1018 10 16 0.00 0.00
7:59 pm 19:59 Partly Cloudy 90 32.2 71 21.7 54 54 S 13 20 30.05 1018 10 16 0.00 0.00
8:59 pm 20:59 Partly Cloudy 86 30 71 21.7 61 61 S 13 20 30.06 1018 10 16 0.00 0.00
9:59 pm 21:59 Clear 85 29.4 73 22.8 68 68 S 10 17 30.06 1018 10 16 0.00 0.00
10:59 pm 22:59 Clear 83 28.3 74 23.3 74 74 SSW 12 19 30.06 1018 10 16 0.00 0.00
11:59 pm 23:59 Clear 83 28.3 74 23.3 74 74 SSW 10 17 30.06 1018 10 16 0.00 0.00

Powered by AerisWeather